This is the latest recevied weather packets stored in our database for station/object I4GOS-3. If no packets are shown the sender has not sent any weather packets the latest 1 day(s).
| Time | Temp. | Humidity | Pressure | Rain* | Wind** | Luminosity | Snow |
|---|---|---|---|---|---|---|---|
| 1777993681 | 20° C | 67% | 1012.5 hPa | 0 mm | 4.92 m/s, 140° | - | - |
| 1777993381 | 20° C | 67% | 1012.5 hPa | 0 mm | 1.34 m/s, 143° | - | - |
| 1777993080 | 20° C | 67% | 1012.6 hPa | 0 mm | 4.02 m/s, 150° | - | - |
| 1777992780 | 20° C | 67% | 1012.7 hPa | 0 mm | 2.68 m/s, 141° | - | - |
| 1777992480 | 20° C | 67% | 1012.8 hPa | 0 mm | 6.26 m/s, 145° | - | - |
| 1777992180 | 20° C | 66% | 1012.8 hPa | 0 mm | 3.13 m/s, 149° | - | - |
| 1777991879 | 20.56° C | 66% | 1012.9 hPa | 0 mm | 4.47 m/s, 177° | - | - |
| 1777991579 | 20.56° C | 66% | 1013 hPa | 0 mm | 3.58 m/s, 141° | - | - |
| 1777991279 | 20.56° C | 67% | 1013 hPa | 0 mm | 3.58 m/s, 128° | - | - |
| 1777990979 | 20° C | 66% | 1013.1 hPa | 0 mm | 2.24 m/s, 181° | - | - |
| 1777990678 | 20.56° C | 65% | 1013.1 hPa | 0 mm | 4.02 m/s, 138° | - | - |
| 1777990378 | 20.56° C | 65% | 1013.1 hPa | 0 mm | 8.05 m/s, 136° | - | - |
| 1777990078 | 20.56° C | 67% | 1013.1 hPa | 0 mm | 0.45 m/s, 135° | - | - |
| 1777989778 | 20° C | 67% | 1013.1 hPa | 0 mm | 6.26 m/s, 121° | - | - |
| 1777989478 | 20° C | 67% | 1013.1 hPa | 0 mm | 2.24 m/s, 132° | - | - |
| 1777989177 | 20° C | 68% | 1013.2 hPa | 0 mm | 5.36 m/s, 130° | - | - |
| 1777988877 | 19.44° C | 68% | 1013.4 hPa | 0 mm | 5.36 m/s, 136° | - | - |
| 1777988577 | 19.44° C | 67% | 1013.5 hPa | 0 mm | 4.47 m/s, 145° | - | - |
| 1777988277 | 20° C | 67% | 1013.5 hPa | 0 mm | 0.89 m/s, 151° | - | - |
| 1777987976 | 20° C | 67% | 1013.5 hPa | 0 mm | 2.68 m/s, 142° | - | - |
| 1777987676 | 20° C | 67% | 1013.5 hPa | 0 mm | 2.68 m/s, 164° | - | - |
| 1777987376 | 20° C | 67% | 1013.5 hPa | 0 mm | 4.02 m/s, 137° | - | - |
| 1777987076 | 20° C | 67% | 1013.6 hPa | 0 mm | 0 m/s | - | - |
| 1777986776 | 20° C | 67% | 1013.6 hPa | 0 mm | 3.13 m/s, 158° | - | - |
| 1777986475 | 20.56° C | 66% | 1013.5 hPa | 0 mm | 3.13 m/s, 149° | - | - |
* Rain latest hour (hover to see other rain measurements)
** Current wind speed in m/s (hover to see current wind gust speed)